www.pogodaiklimat.ru

Погода и климат >> Архив погоды >> Россия >> Чукотка >> Уэлен


АРХИВ ПОГОДЫ в Уэлене

Время (UTC), дата Ветер
(напр.,м/с)
 
Видим.   Явления Облачность Т
(С)
Тd
(С)
f
(%)
Тe
(С)
Тes
(С)
Комфортность P
(гПа)
Po
(гПа)
Тmin
(С)
Tmax
(С)
R
(мм)
R24
(мм)
S
(см)
06 12.02 В 2
{14}
22 км {ливн. осадки, метель} 9/9 300 м
[Cu Sc]
-0.7 -2.9 85 -4 -4 978.8 977.9 +0.2 1
09 12.02 СЗ 18-19
{21}
600 м метель 10/10 300 м
[Cu Sc]
-9.0 -11.0 85 -22 -22 982.9 982.0
12 12.02 СЗ 15-16
{22}
2800 м метель 10/10 300 м
[Cu Sc]
-16.0 -18.7 80 -30 -30 994.2 993.3
15 12.02 СЗ 12-14
{16}
3400 м слаб. ливневой снег {метель} 10/10 300 м
[Cb cap]
-19.6 -22.2 80 -34 -34 опасность
обморожения
1001.2 1000.2
18 12.02 СЗ 9-10
{16}
8000 м слаб. ливневой снег {метель} 10/10 300 м
[Cb cap]
-20.4 -22.9 80 -34 -34 опасность
обморожения
1007.7 1006.7 -20.4 0.0 62
21 12.02 С 7
{12}
5000 м слаб. ливневой снег {метель} 10/10 300 м
[Cb cap]
-22.0 -24.5 80 -34 -34 опасность
обморожения
1012.6 1011.6
00 13.02 С 3
{10}
7000 м слаб. ливневой снег {метель} 10/10 300 м
[Cb cap]
-23.6 -26.1 80 -32 -32 опасность
обморожения
1016.6 1015.6
03 13.02 штиль 0
{6}
9000 м слаб. ливневой снег 10/8 300 м
[Cb cap Ci fib]
-24.0 -26.5 80 -24 -24 1018.4 1017.4
06 13.02 С 3
{5}
9000 м слаб. ливневой снег 9/9 300 м
[Cb cap]
-24.0 -26.5 80 -32 -32 опасность
обморожения
1019.7 1018.7 -20.4 0.3
09 13.02 СЗ 2
{4}
28 км в посл. час ливневой снег 6/4 600 м
[Sc Ci fib]
-24.4 -27.6 75 -31 -31 опасность
обморожения
1021.7 1020.7
12 13.02 штиль 0
{3}
35 км {ливн. осадки} 4/3 600 м
[Sc Ci fib]
-26.8 -30.7 69 -27 -27 1023.4 1022.4
15 13.02 З 3
{4}
50 км 3/1 600 м
[Sc Ci fib]
-26.2 -30.1 70 -35 -35 опасность
обморожения
1025.8 1024.8
18 13.02 Ю 1
{3}
50 км 3/1 600 м
[Sc Ci fib]
-32.7 -36.4 69 -37 -37 опасность
обморожения
1027.2 1026.2 -32.7 0.0 64
21 13.02 Ю 1
{3}
50 км 3/3 600 м
[Sc Ci fib]
-32.0 -35.7 70 -36 -36 опасность
обморожения
1028.8 1027.8
00 14.02 штиль 0
{2}
50 км 4/1 600 м
[Sc Ci fib]
-27.5 -31.3 70 -28 -27 1029.2 1028.2
03 14.02 Ю 1
{3}
50 км 9/9 600 м
[Sc]
-30.0 -33.7 70 -34 -34 опасность
обморожения
1029.8 1028.8
06 14.02 Ю 1
{3}
35 км 9/9 600 м
[Sc]
-27.8 -31.7 69 -32 -32 опасность
обморожения
1029.2 1028.2 -27.5
09 14.02 Ю 1
{3}
50 км 9/9 600 м
[Sc]
-26.6 -30.4 70 -30 -30 1028.1 1027.1
12 14.02 Ю 4
{6}
50 км 9/9 600 м
[Sc]
-24.0 -27.2 75 -34 -34 опасность
обморожения
1026.1 1025.1
15 14.02 Ю 2
{5}
50 км 9/9 600 м
[Sc]
-23.0 -26.3 74 -29 -29 1022.3 1021.3
18 14.02 СВ 6
{13}
50 км позёмок 10/10 600 м
[Sc]
-16.2 -20.4 70 -26 -26 1018.4 1017.4 -27.8 64
21 14.02 СВ 5
{12}
20 км позёмок 10/10 600 м
[Sc]
-16.0 -21.1 65 -25 -25 1015.9 1014.9
00 15.02 ЮВ 9-10
{14}
18 км сильный позёмок 10/10 600 м
[Sc]
-9.8 -13.9 72 -20 -20 1011.1 1010.2
03 15.02 С 6
{16}
1800 м ливневой снег {метель} 10/10 300 м
[Cb cap]
-11.4 -14.9 75 -20 -20 1010.8 1009.9
06 15.02 В 7
{11}
2600 м слаб. ливневой снег {метель} 10/10 300 м
[Cb cap]
-8.5 -11.7 78 -17 -17 1009.4 1008.5 -8.4 0.8
09 15.02 В 8-10
{14}
3800 м слаб. ливневой снег {метель} 9/9 300 м
[Cb cap]
-7.9 -11.5 75 -17 -17 1009.5 1008.6
12 15.02 С 4
{13}
9000 м слаб. ливневой снег {метель} 9/9 300 м
[Cb cap]
-7.2 -10.1 80 -14 -14 1009.6 1008.7
15 15.02 ЮВ 1
{5}
30 км {ливн. осадки} 9/9 600 м
[Sc]
-8.4 -10.7 83 -11 -11 1009.3 1008.4
18 15.02 штиль 0
{3}
26 км {ливн. осадки} 9/9 300 м
[St]
-6.0 -8.3 84 -7 -7 1008.5 1007.6 -8.5 0.3 64
21 15.02 Ю 13-15
{18}
2200 м метель 10/8 300 м
[St Ci fib]
-3.0 -5.4 83 -13 -13 1007.0 1006.1
00 16.02 ЮВ 12-15
{17}
3200 м метель 9/9 300 м
[St]
-4.3 -6.2 87 -14 -14 1003.3 1002.4
03 16.02 В 7
{19}
4600 м слаб. ливневой снег {метель} 10/10 300 м
[Cb cap]
-5.4 -7.5 85 -14 -14 1001.2 1000.3
06 16.02 ЮЗ 13-16
{18}
600 м ливневой снег {метель} 10/10 300 м
[Cb cap]
-5.6 -7.4 87 -16 -16 998.1 997.2 -2.6 0.7
09 16.02 ЮВ 13-15
{21}
1400 м слаб. ливневой снег {метель} 9/9 300 м
[Cb cap]
-5.0 -6.3 91 -16 -16 996.7 995.8
12 16.02 ЮВ 16-18
{20}
700 м сильная метель {ливн. осадки} 9/9 300 м
[Sc]
-2.8 -4.1 91 -14 -14 996.3 995.4
15 16.02 Ю 16-17
{21}
1300 м метель 8/5 300 м
[Sc Ci fib]
-2.3 -3.5 91 -13 -13 997.5 996.6
18 16.02 Ю 15-18
{22}
1600 м метель 6/3 300 м
[Sc Ci fib]
-3.2 -4.6 90 -14 -14 999.3 998.4 -5.6 0.9 55
21 16.02 Ю 19-20
{22}
1400 м метель 10/9 300 м
[Sc Ci fib]
-2.6 -4.2 89 -14 -14 999.8 998.9
00 17.02 Ю 19-21
{24}
600 м сильная метель 6/5 300 м
[Sc Ci fib]
-2.2 -4.0 87 -13 -13 1001.2 1000.3
03 17.02 Ю 18-20
{23}
1200 м метель 9/9 300 м
[Sc]
-1.8 -3.6 87 -13 -13 1003.2 1002.3
06 17.02 Ю 17-18
{21}
3200 м метель 4/4 600 м
[Sc]
-2.1 -3.9 87 -13 -13 1004.5 1003.6 -1.8
09 17.02 Ю 13-15
{23}
3600 м метель 4/4 600 м
[Sc]
-1.6 -4.0 84 -11 -11 1006.7 1005.8
12 17.02 Ю 7
{16}
24 км позёмок 9/9 300 м
[St]
-1.8 -4.6 81 -9 -9 1007.3 1006.4
15 17.02 Ю 8
{14}
8000 м слаб. ливневой снег {метель} 10/10 300 м
[Cb cap]
-2.4 -4.6 85 -11 -11 1006.5 1005.6
18 17.02 ЮЗ 7
{11}
24 км позёмок {ливн. осадки} 9/8 300 м
[St Ci fib]
-3.4 -5.9 83 -11 -11 1006.0 1005.1 -3.4 0.0 59
21 17.02 Ю 3
{9}
1900 м дымка 10/10 100 м
[St]
-3.4 -4.2 94 -9 -9 1005.0 1004.1
00 18.02 ЮЗ 1
{4}
2300 м слаб. ливневой снег {метель} 10/10 200 м
[Cb cap]
-3.2 -4.6 90 -6 -6 1003.7 1002.8
03 18.02 штиль 0
{2}
3300 м слаб. ливневой снег 10/10 200 м
[Cb cap]
-4.0 -5.5 89 -5 -5 1001.9 1001.0
06 18.02 Ю 2
{3}
3800 м слаб. ливневой снег 10/9 300 м
[Cb cap Ci fib]
-4.4 -6.0 89 -9 -9 1001.4 1000.5 -3.0 3
09 18.02 Ю 2
{4}
9000 м слаб. ливневой снег 10/10 200 м
[Cb cap]
-7.4 -9.1 88 -12 -12 1001.7 1000.8
12 18.02 Ю 3
{5}
18 км {ливн. осадки} 9/9 200 м
[Cu Sc]
-9.3 -11.4 85 -15 -15 1002.7 1001.8
15 18.02 Ю 3
{4}
50 км 9/9 300 м
[Sc]
-9.0 -11.5 82 -15 -15 1004.0 1003.1
18 18.02 ЮВ 2
{7}
45 км {метель} 9/9 300 м
[Sc]
-7.8 -10.5 81 -12 -12 1006.7 1005.8 -9.5 0.2 59
21 18.02 СЗ 4
{7}
50 км {метель} 9/9 300 м
[St]
-8.6 -11.0 83 -15 -15 1009.6 1008.7
00 19.02 СЗ 5
{8}
50 км позёмок 8/5 300 м
[St Ci fib]
-10.7 -13.5 80 -19 -18 1012.8 1011.9
03 19.02 С 4
{7}
50 км {метель} 8/4 300 м
[St Ci fib]
-11.4 -14.9 75 -18 -18 1015.9 1015.0

 

Местоположение метеостанции Уэлен (Чукотка, Россия): широта 66.16 долгота -169.00 высота над уровнем моря 7 м.

В архиве по умолчанию представлена погода в Уэлене за последнюю неделю. Архивные данные за месяц целиком и за предыдущие месяцы, начиная с января 2011 года, Вы можете получить, выбрав интересующий диапазон дат из раскрывающегося списка и нажав кнопку "Ввод!".


*Определитесь, кто Вы:
робот инопланетянин человек

Внимание! Время в таблицах - всемирное. Для получения местного времени необходимо прибавить поправку, которая равна 12 ч.

Смотрите также архив погоды в соседних городах и на ближайших метеорологических станциях:

Погода на Мысе Ванкарем (Чукотка, Россия) (320 км)
Погода в Эгвекиноте (Чукотка, Россия) (448 км)
Погода на Мысе Шмидта (Чукотка, Россия) (520 км)
Погода на Острове Врангеля (Чукотка, Россия) (648 км)

Пояснения к столбцам:

Ветер - указаны скорость ветра в м/с - средняя за 10 мин, порывы в срок и между сроками (в фигурных скобках) и направление, откуда дует ветер: С - северный, СВ - северо-восточный, В - восточный, ЮВ - юго-восточный, Ю - южный, ЮЗ - юго-западный, З - западный, СЗ - северо-западный.
Видимость - горизонтальная дальность видимости в метрах или километрах. При видимости от 1 до 10 км при отсутствии осадков обычно наблюдается дымка, при ухудшении видимости до 1 км и менее - туман. В сухую погоду видимость может ухудшаться дымом, пылью или мглою.
Явления - указаны атмосферные явления, наблюдавшиеся в срок или в последний час перед сроком; фигурными скобками обозначены явления, наблюдавшиеся между сроками (за 1-3 часа до срока); квадратными скобками обозначены град или гололедные отложения с указанием их диаметра в мм.
Облачность - указаны через наклонную черту общая и нижняя облачность в баллах и высота нижней границы облаков в метрах; квадратными скобками обозначены формы облаков: Ci - перистые, Cs - перисто-слоистые, Cc - перисто-кучевые, Ac - высококучевые, As - высокослоистые, Sc - слоисто-кучевые, Ns - слоисто-дождевые, Cu - кучевые, Cb - кучево-дождевые. Подробнее классификацию облаков см. в Атласе облаков (PDF).
T - Температура воздуха - температура, измеренная на высоте 2 м над землей.
Td - Температура точки росы - температура, при понижении до которой содержащийся в воздухе водяной пар достигнет насыщения.
f - Относительная влажность воздуха - влажноcть воздуха, измеренная на высоте 2 м над землей.
Te - Эффективная температура - температура, которую ощущает одетый по сезону человек в тени. Характеристика душности погоды. При расчете учитывается влияние влажности воздуха и скорости ветра на теплоощущения человека.
Tes - Эффективная температура на солнце - температура, которую ощущает человек, с поправкой на солнечный нагрев. Характеристика знойности погоды. Зависит от высоты солнца над горизонтом, облачности и скорости ветра. Ночью, в пасмурную погоду, а также при ветре 12 м/с и более поправка равна нулю.
P - Атмосферное давление - приведенное к уровню моря атмосферное давление.
Po - Атмосферное давление - измеренное на уровне метеостанции атмосферное давление.
Tmin - Минимальная температура - минимум температуры воздуха на высоте 2 м над землей.
Tmax - Максимальная температура - максимум температуры воздуха на высоте 2 м над землей.
R - Количество осадков - Количество выпавших осадков за период времени, мм. При наведении курсора мыши на число - период времени, за который выпало указанное количество осадков.
R24 - Количество осадков - Количество выпавших осадков за 24 часа, мм.
S - Снежный покров - Высота снежного покрова, см. При наведении курсора мыши на число - состояние снежного покрова и степень покрытия местности в баллах.